This demonstration page uses our WeatherBlox Daily Observations layout. Learn more.

Left ArrowRight Arrow

34.16533, -84.80231

Hourly Observations for October 16, 2021

Temp ( °F °C ) Dew Point ( °F °C ) Humidity (%) Winds ( mph kmh ) Pressure ( in mb ) Visibility ( mi km ) Precip ( " mm )
12:15 am 00:15 Clear 68 20 66 19 94 94 N N/A 29.92 1013 9 14 N/A
12:35 am 00:35 Clear 68 20 66 19 94 94 N N/A 29.92 1013 9 14 N/A
12:55 am 00:55 Clear 66 19 66 19 100 100 N N/A 29.93 1013 9 14 N/A
1:15 am 01:15 Clear 66 19 66 19 100 100 N N/A 29.93 1013 8 13 N/A
1:35 am 01:35 Clear 66 19 66 19 100 100 N N/A 29.92 1013 9 14 N/A
1:55 am 01:55 Clear 66 19 64 18 94 94 N N/A 29.92 1013 8 13 N/A
2:15 am 02:15 Clear 66 19 64 18 94 94 N N/A 29.92 1013 8 13 N/A
2:35 am 02:35 Mostly Cloudy 66 19 64 18 94 94 N N/A 29.92 1013 7 11 N/A
2:55 am 02:55 Cloudy 66 19 64 18 94 94 N N/A 29.92 1013 7 11 N/A
3:15 am 03:15 Cloudy 66 19 64 18 94 94 N N/A 29.91 1013 8 13 N/A
3:35 am 03:35 Cloudy 66 19 64 18 94 94 N N/A 29.89 1012 7 11 N/A
3:55 am 03:55 Mostly Cloudy 64 18 64 18 100 100 N N/A 29.88 1012 8 13 N/A
4:15 am 04:15 Clear 64 18 64 18 100 100 N N/A 29.88 1012 8 13 N/A
4:35 am 04:35 Mostly Cloudy 66 19 64 18 94 94 N N/A 29.88 1012 9 14 N/A
4:55 am 04:55 Mostly Cloudy 66 19 64 18 94 94 N N/A 29.87 1011 9 14 N/A
5:15 am 05:15 Cloudy 66 19 64 18 94 94 W 9 15 29.89 1012 8 13 N/A
5:35 am 05:35 Cloudy 68 20 66 19 94 94 W 8 13 29.89 1012 9 14 N/A
5:55 am 05:55 Mostly Cloudy 68 20 66 19 94 94 VRB 8 13 29.90 1013 9 14 N/A
6:15 am 06:15 Cloudy with Light Rain 68 20 66 19 94 94 VRB 6 9 29.90 1013 4 6 N/A
6:35 am 06:35 Cloudy with Light Rain 68 20 66 19 94 94 W 6 9 29.90 1013 6 10 N/A
6:55 am 06:55 Cloudy 68 20 66 19 94 94 W 6 9 29.91 1013 7 11 N/A
7:15 am 07:15 Cloudy 68 20 66 19 94 94 W 6 9 29.91 1013 7 11 N/A
7:35 am 07:35 Cloudy 68 20 66 19 94 94 W 6 9 29.92 1013 8 13 N/A
7:55 am 07:55 Cloudy with Light Rain 68 20 66 19 94 94 W 7 11 29.92 1013 7 11 0.01 0.25
8:15 am 08:15 Cloudy 68 20 66 19 94 94 W 6 9 29.93 1014 9 14 N/A
8:35 am 08:35 Cloudy 68 20 66 19 94 94 W 8 13 29.93 1014 8 13 N/A
8:55 am 08:55 Cloudy with Mist and Fog 66 19 63 17 88 88 W 13 20 29.97 1015 6 10 N/A
9:15 am 09:15 Cloudy 63 17 61 16 94 94 W 12 19 29.99 1016 10 16 N/A
9:35 am 09:35 Cloudy 63 17 59 15 88 88 W 15 24 30.01 1016 10 16 N/A
9:55 am 09:55 Cloudy 61 16 57 14 88 88 W 15 24 30.02 1017 10 16 0.01 0.25
10:15 am 10:15 Cloudy 61 16 57 14 88 88 W 15 24 30.03 1017 10 16 N/A
10:35 am 10:35 Cloudy 61 16 57 14 88 88 W 10 17 30.04 1017 10 16 N/A
10:55 am 10:55 Cloudy 61 16 57 14 88 88 WNW 9 15 30.04 1017 10 16 N/A
11:15 am 11:15 Cloudy 63 17 55 13 77 77 W 10 17 30.05 1018 10 16 N/A
11:35 am 11:35 Cloudy 63 17 55 13 77 77 VRB 6 9 30.05 1018 10 16 N/A
11:55 am 11:55 Mostly Cloudy 63 17 52 11 68 68 WNW 12 19 30.06 1018 10 16 N/A
12:15 pm 12:15 Partly Cloudy 64 18 52 11 64 64 NW 10 17 30.06 1018 10 16 N/A
12:35 pm 12:35 Mostly Cloudy 63 17 52 11 68 68 NNW 9 15 30.07 1018 10 16 N/A
12:55 pm 12:55 Mostly Cloudy 64 18 52 11 64 64 N 12 19 30.06 1018 10 16 N/A
1:15 pm 13:15 Mostly Cloudy 64 18 50 10 60 60 NNW 9 15 30.06 1018 10 16 N/A
1:35 pm 13:35 Mostly Cloudy 64 18 50 10 60 60 NNW 9 15 30.06 1018 10 16 N/A
1:55 pm 13:55 Partly Cloudy 64 18 48 9 56 56 NW 9 15 30.05 1018 10 16 N/A
2:15 pm 14:15 Mostly Cloudy 66 19 48 9 52 52 W 8 13 30.04 1017 10 16 N/A
2:35 pm 14:35 Mostly Cloudy 66 19 46 8 49 49 N 10 17 30.04 1017 10 16 N/A
2:55 pm 14:55 Mostly Cloudy 66 19 45 7 46 46 WNW 13 20 30.03 1017 10 16 N/A
3:15 pm 15:15 Hazy 66 19 45 7 46 46 NNW 8 13 30.03 1017 6 10 N/A
3:35 pm 15:35 Mostly Sunny 66 19 43 6 43 43 W 14 22 30.03 1017 10 16 N/A
3:55 pm 15:55 Sunny 68 20 43 6 40 40 WNW 9 15 30.03 1017 10 16 N/A
4:15 pm 16:15 Sunny 68 20 37 3 33 33 W 13 20 30.03 1017 10 16 N/A
4:35 pm 16:35 Sunny 66 19 36 2 32 32 N 9 15 30.04 1017 10 16 N/A
4:55 pm 16:55 Sunny 66 19 37 3 35 35 WNW 10 17 30.04 1017 10 16 N/A
5:15 pm 17:15 Sunny 66 19 37 3 35 35 NW 9 15 30.04 1017 10 16 N/A
5:35 pm 17:35 Sunny 66 19 36 2 32 32 NNW 9 15 30.05 1018 10 16 N/A
5:55 pm 17:55 Sunny 64 18 36 2 34 34 VRB 7 11 30.06 1018 10 16 N/A
6:15 pm 18:15 Sunny 64 18 37 3 37 37 VRB 7 11 30.07 1018 10 16 N/A
6:35 pm 18:35 Sunny 63 17 37 3 39 39 VRB 6 9 30.08 1019 10 16 N/A
6:55 pm 18:55 Sunny 61 16 37 3 42 42 VRB 5 7 30.09 1019 10 16 N/A
7:15 pm 19:15 Clear 61 16 37 3 42 42 N N/A 30.09 1019 10 16 N/A
7:35 pm 19:35 Clear 59 15 37 3 45 45 N N/A 30.11 1019 10 16 N/A
7:55 pm 19:55 Clear 59 15 37 3 45 45 N N/A 30.12 1020 10 16 N/A
8:15 pm 20:15 Clear 59 15 37 3 45 45 VRB 5 7 30.13 1020 10 16 N/A
8:35 pm 20:35 Clear 57 14 37 3 48 48 W 3 6 30.13 1020 10 16 N/A
8:55 pm 20:55 Clear 57 14 37 3 48 48 N N/A 30.14 1021 10 16 N/A
9:15 pm 21:15 Clear 57 14 37 3 48 48 VRB 6 9 30.14 1021 10 16 N/A
9:35 pm 21:35 Clear 55 13 39 4 55 55 VRB 6 9 30.15 1021 10 16 N/A
9:55 pm 21:55 Clear 55 13 37 3 51 51 VRB 7 11 30.15 1021 10 16 N/A
10:15 pm 22:15 Clear 55 13 39 4 55 55 VRB 5 7 30.16 1021 10 16 N/A
10:35 pm 22:35 Clear 54 12 39 4 58 58 W 6 9 30.16 1021 10 16 N/A
10:55 pm 22:55 Clear 54 12 41 5 63 63 W 5 7 30.16 1021 10 16 N/A
11:15 pm 23:15 Clear 52 11 41 5 67 67 N N/A 30.17 1022 10 16 N/A
11:35 pm 23:35 Clear 52 11 41 5 67 67 N N/A 30.17 1022 10 16 N/A
11:55 pm 23:55 Clear 50 10 43 6 76 76 N N/A 30.17 1022 10 16 N/A

Powered by AerisWeather